Погода в Илоило

Филиппины     10°45′15″N   122°32′04″E
темп.,
°C
ветер,
м/с
пор.,
м/с
влажн.,
%
обл.,
%
осадки,
мм/ч
давл.,
гПа
погр.,
м
18 января, вт
вт1823:00+23ссв61277100 0.0 1013720
02:00+23ссв7127883 0.0 1012747
05:00+23ссв61180100 0.0 1011606
08:00+23ссв71278100 0.0 1013721
11:00+25ссв8127599 0.0 10121090
14:00+26ссв81272100 0.0 10091085
17:00+25с61076100 0.1 1009823
20:00+25ссв6107487 0.1 1011766
19 января, ср
ср1923:00+24ссв61278100 0.0 1011771
02:00+23ссв6128587 0.0 1009701
05:00+24ссв61287100 0.0 1009708
08:00+24ссв61287100 0.0 1011812
11:00+27ссв7117336 0.0 10101046
14:00+28ссв8107156 0.1 10081034
17:00+26ссв710785 0.0 1008829
20:00+24ссв6108636 0.0 1009517
20 января, чт
чт2023:00+24ссв5108966 0.0 1009458
02:00+23ссв6119248 0.0 1009471
05:00
08:00+25ссв6108099 0.0 1010737
11:00+30св786194 0.0 10091215
14:00
17:00+28ссв69716 0.0 1008778
20:00+24с6118214 0.0 1010457
21 января, пт
пт2123:00+24с61182100 0.0 1010471
02:00+24ссв510846 0.0 1009404
05:00+24ссв598429 0.0 1009376
08:00+26ссв6975100 0.0 1011622
11:00+30ссв786027 0.0 10101111
14:00+29ссв786399 0.4 10081110
17:00+26ссв811828 0.8 1009845
20:00+24ссв61183100 0.8 1011661
22 января, сб
сб2223:00+24ссв61184100 0.0 1010624
02:00+24ссв6108599 0.0 1009585
05:00+24ссв5108734 0.0 1009514
08:00+25ссв6118098 0.0 1010673
11:00+28св586798 0.0 10101012
14:00+30св675937 0.1 10071183
17:00+27ссв597616 0.6 1008697
20:00+24с51086100 0.9 1010421